Wise, VA

6:55 AM EDT on April 25, 2018 (GMT -0400)
Lonesome Pine

Weather History for KLNP - December, 2013

Change the Weather History Date:

Monday, December 23, 2013

  Actual Average Record
Temperature  
Mean Temperature 42 °F -  
Max Temperature 53 °F 39 °F 62 °F (2015)
Min Temperature 28 °F 23 °F 1 °F (2000)
Degree Days  
Heating Degree Days 24    
Moisture  
Dew Point 39 °F    
Average Humidity 100    
Maximum Humidity 100    
Minimum Humidity 100    
Precipitation  
Precipitation 0.11 in - - ()
Sea Level Pressure  
Sea Level Pressure 30.17 in    
Wind  
Wind Speed 8 mph (NW)    
Max Wind Speed 13 mph    
Max Gust Speed 20 mph    
Visibility 7 miles    
Events Fog , Rain    
Averages and records for this station are not official NWS values.
T = Trace of Precipitation, MM = Missing Value Source: NWS Daily Summary

Daily Weather History Graph

Daily Weather History Graph

Search for Another Location

Airport or City:

Astronomy

Dec. 23, 2013 Rise Set
Actual Time 7:40 AM EST 5:18 PM EST
Civil Twilight 7:11 AM EST 5:47 PM EST
Nautical Twilight 6:39 AM EST 6:19 PM EST
Astronomical Twilight 6:07 AM EST 6:51 PM EST
Moon 11:18 PM EST (12/23) 11:12 AM EST (12/23)
Length of Visible Light 10h 35m
Length of Day
9h 37m
Waning Gibbous, 68% of the Moon is Illuminated
Dec 23
Waning Gibbous
Dec 25
Last Quarter
Jan 1
New
Jan 7
First Quarter
Jan 15
Full

Hourly Weather History & Observations

Time (EST) Temp. Windchill Dew Point Humidity Pressure Visibility Wind Dir Wind Speed Gust Speed Precip Events Conditions
12:15 AM 51.8 °F - 51.8 °F 100% 30.05 in 10.0 mi SSW 9.2 mph - 0.01 in Rain Rain
12:35 AM 51.8 °F - 51.8 °F 100% 30.04 in 10.0 mi South 6.9 mph - 0.01 in Rain Rain
12:55 AM 53.6 °F - 53.6 °F 100% 30.04 in 10.0 mi South 11.5 mph 19.6 mph 0.01 in   Light Drizzle
1:15 AM 53.6 °F - 53.6 °F 100% 30.05 in 10.0 mi SSW 10.4 mph - 0.01 in Rain Rain
1:35 AM 51.8 °F - 51.8 °F 100% 30.03 in 10.0 mi South 5.8 mph - 0.01 in Rain Light Rain
1:55 AM 51.8 °F - 51.8 °F 100% 30.04 in 10.0 mi SSW 8.1 mph - 0.02 in Rain Rain
2:15 AM 51.8 °F - 51.8 °F 100% 30.05 in 10.0 mi SSW 10.4 mph - N/A Rain Light Rain
2:35 AM 51.8 °F - 51.8 °F 100% 30.03 in 10.0 mi South 5.8 mph - 0.01 in Rain Light Rain
2:55 AM 50.0 °F - 50.0 °F 100% 30.05 in 10.0 mi SW 5.8 mph - 0.02 in Rain Light Rain
3:15 AM 50.0 °F - 50.0 °F 100% 30.05 in 10.0 mi SW 10.4 mph - N/A Rain Rain
3:35 AM 50.0 °F - 50.0 °F 100% 30.05 in 10.0 mi SSW 9.2 mph - N/A Rain Rain
3:55 AM 50.0 °F - 50.0 °F 100% 30.05 in 10.0 mi SSW 9.2 mph - 0.01 in Rain Light Rain
4:15 AM 50.0 °F - 50.0 °F 100% 30.05 in 10.0 mi SSW 6.9 mph - N/A   Overcast
4:35 AM 50.0 °F - 50.0 °F 100% 30.04 in 5.0 mi SW 10.4 mph - 0.01 in   Light Drizzle
4:55 AM 50.0 °F - 50.0 °F 100% 30.04 in 10.0 mi WSW 8.1 mph - 0.01 in   Overcast
5:15 AM 50.0 °F - 50.0 °F 100% 30.02 in 5.0 mi WSW 8.1 mph - N/A   Overcast
5:35 AM 50.0 °F - 50.0 °F 100% 30.04 in 10.0 mi WSW 11.5 mph - N/A   Overcast
5:55 AM 50.0 °F - 50.0 °F 100% 30.05 in 7.0 mi West 5.8 mph - N/A Rain Rain
6:15 AM 50.0 °F - 50.0 °F 100% 30.06 in 10.0 mi SW 4.6 mph - 0.01 in   Overcast
6:35 AM 50.0 °F - 50.0 °F 100% 30.05 in 10.0 mi WSW 3.5 mph - 0.01 in   Overcast
6:55 AM 50.0 °F - 50.0 °F 100% 30.07 in 10.0 mi WSW 4.6 mph - 0.01 in   Overcast
7:15 AM 46.4 °F 40.7 °F 46.4 °F 100% 30.10 in 4.0 mi WNW 12.7 mph 18.4 mph N/A   Drizzle
7:35 AM 44.6 °F 39.7 °F 44.6 °F 100% 30.12 in 10.0 mi NW 9.2 mph 19.6 mph 0.01 in   Drizzle
7:55 AM 42.8 °F 36.6 °F 42.8 °F 100% 30.14 in 4.0 mi WNW 11.5 mph - 0.02 in   Drizzle
8:15 AM 41.0 °F 36.4 °F 41.0 °F 100% 30.15 in 1.5 mi NW 6.9 mph 16.1 mph 0.01 in Rain Rain
8:35 AM 41.0 °F 35.8 °F 41.0 °F 100% 30.16 in 0.8 mi NNW 8.1 mph - 0.01 in   Overcast
8:55 AM 37.4 °F 30.8 °F 37.4 °F 100% 30.15 in 5.0 mi WNW 9.2 mph - 0.01 in   Overcast
9:15 AM 37.4 °F 32.1 °F 37.4 °F 100% 30.17 in 0.2 mi NNW 6.9 mph 17.3 mph N/A Fog Fog
9:35 AM 37.4 °F 30.8 °F 37.4 °F 100% 30.19 in 0.5 mi NW 9.2 mph - N/A   Drizzle
9:55 AM 35.6 °F 29.2 °F 35.6 °F 100% 30.21 in 4.0 mi NW 8.1 mph - N/A   Light Drizzle
10:15 AM 35.6 °F 29.9 °F 35.6 °F 100% 30.21 in 4.0 mi NW 6.9 mph - N/A   Overcast
10:35 AM 35.6 °F 28.6 °F 35.6 °F 100% 30.21 in 0.2 mi NW 9.2 mph - N/A Fog Fog
10:55 AM 35.6 °F 29.2 °F 35.6 °F 100% 30.21 in 0.2 mi NNW 8.1 mph 16.1 mph N/A Fog Fog
11:15 AM 35.6 °F 28.0 °F 35.6 °F 100% 30.22 in 0.2 mi NNW 10.4 mph - N/A Fog Fog
11:35 AM 33.8 °F 26.4 °F 33.8 °F 100% 30.21 in 0.2 mi NNW 9.2 mph - N/A Fog Fog
11:55 AM 35.6 °F 28.0 °F 35.6 °F 100% 30.21 in 0.2 mi NW 10.4 mph - N/A Fog Fog
12:15 PM 33.8 °F 28.6 °F 33.8 °F 100% 30.21 in 0.2 mi NNW 5.8 mph - N/A Fog Fog
12:35 PM 33.8 °F 26.4 °F 33.8 °F 100% 30.21 in 0.2 mi NNW 9.2 mph - N/A Fog Fog
12:55 PM 33.8 °F 27.0 °F 33.8 °F 100% 30.21 in 0.2 mi NNW 8.1 mph 16.1 mph N/A Fog Fog
1:15 PM 33.8 °F 27.7 °F 33.8 °F 100% 30.21 in 5.0 mi WNW 6.9 mph 10.4 mph N/A   Overcast
1:35 PM 33.8 °F 25.8 °F 33.8 °F 100% 30.21 in 0.5 mi NNW 10.4 mph - N/A Fog Fog
1:55 PM 32.0 °F 24.8 °F 32.0 °F 100% 30.22 in 0.2 mi North 8.1 mph - N/A Fog Fog
2:15 PM 32.0 °F 27.5 °F 32.0 °F 100% 30.22 in 0.5 mi NW 4.6 mph 16.1 mph N/A Fog Fog
2:35 PM 32.0 °F 24.8 °F 32.0 °F 100% 30.22 in 7.0 mi NW 8.1 mph - N/A   Overcast
2:55 PM 32.0 °F 25.6 °F 32.0 °F 100% 30.22 in 10.0 mi NW 6.9 mph - N/A   Overcast
3:15 PM 32.0 °F 25.6 °F 32.0 °F 100% 30.22 in 10.0 mi NNW 6.9 mph - N/A   Overcast
3:35 PM 32.0 °F 26.4 °F 32.0 °F 100% 30.22 in 10.0 mi NNW 5.8 mph - N/A   Overcast
3:55 PM 32.0 °F 24.2 °F 32.0 °F 100% 30.22 in 10.0 mi NW 9.2 mph - N/A   Overcast
4:15 PM 32.0 °F 24.8 °F 32.0 °F 100% 30.22 in 10.0 mi NW 8.1 mph - N/A   Overcast
4:35 PM 32.0 °F 27.5 °F 32.0 °F 100% 30.22 in 10.0 mi NNW 4.6 mph - N/A   Overcast
4:55 PM 32.0 °F 25.6 °F 32.0 °F 100% 30.23 in 10.0 mi North 6.9 mph - N/A   Overcast
5:15 PM 32.0 °F 27.5 °F 32.0 °F 100% 30.23 in 10.0 mi NW 4.6 mph - N/A   Overcast
5:35 PM 32.0 °F 24.8 °F 32.0 °F 100% 30.23 in 10.0 mi North 8.1 mph - N/A   Overcast
5:55 PM 32.0 °F 25.6 °F 32.0 °F 100% 30.23 in 10.0 mi NNW 6.9 mph - N/A   Overcast
6:15 PM 32.0 °F 25.6 °F 32.0 °F 100% 30.24 in 10.0 mi NW 6.9 mph - N/A   Overcast
6:35 PM 32.0 °F 24.2 °F 32.0 °F 100% 30.25 in 10.0 mi NNW 9.2 mph - N/A   Overcast
6:55 PM 32.0 °F 24.8 °F 32.0 °F 100% 30.25 in 10.0 mi NNW 8.1 mph - N/A   Overcast
7:15 PM 32.0 °F 24.8 °F 32.0 °F 100% 30.25 in 10.0 mi NNW 8.1 mph - N/A   Overcast
7:35 PM 30.2 °F 23.4 °F 30.2 °F 100% 30.25 in 10.0 mi NNW 6.9 mph - N/A   Overcast
7:55 PM 30.2 °F 25.4 °F 30.2 °F 100% 30.25 in 10.0 mi NNW 4.6 mph - N/A   Overcast
8:15 PM 30.2 °F 25.4 °F 30.2 °F 100% 30.24 in 10.0 mi North 4.6 mph - N/A   Overcast
8:35 PM 30.2 °F 24.3 °F 30.2 °F 100% 30.25 in 10.0 mi North 5.8 mph - N/A   Overcast
8:55 PM 30.2 °F 21.9 °F 30.2 °F 100% 30.24 in 10.0 mi North 9.2 mph - N/A   Overcast
9:15 PM 30.2 °F 24.3 °F 30.2 °F 100% 30.25 in 10.0 mi NNW 5.8 mph - N/A   Overcast
9:35 PM 30.2 °F 24.3 °F 30.2 °F 100% 30.25 in 10.0 mi North 5.8 mph - N/A   Overcast
9:55 PM 30.2 °F 23.4 °F 30.2 °F 100% 30.25 in 10.0 mi North 6.9 mph - N/A   Overcast
10:15 PM 30.2 °F 24.3 °F 30.2 °F 100% 30.26 in 10.0 mi North 5.8 mph - N/A   Overcast
10:35 PM 30.2 °F - 30.2 °F 100% 30.26 in 10.0 mi Calm Calm - N/A   Overcast
10:55 PM 30.2 °F 24.3 °F 30.2 °F 100% 30.26 in 10.0 mi NW 5.8 mph - N/A   Overcast
11:15 PM 30.2 °F 24.3 °F 30.2 °F 100% 30.25 in 10.0 mi NNW 5.8 mph - N/A   Overcast
11:35 PM 30.2 °F 26.7 °F 30.2 °F 100% 30.26 in 10.0 mi WNW 3.5 mph - N/A   Overcast
11:55 PM 28.4 °F 23.3 °F 28.4 °F 100% 30.25 in 10.0 mi NW 4.6 mph - N/A   Overcast